Regional Weather Roundup
Issued by NWS

Home | Current Version | Previous Version | Graphics & Text | Print | Product List | Glossary On
Versions: 1 2 3 4 5 6 7 8 9 10 11 12 13 14 15 16 17 18 19 20 21 22 23 24 25 26 27 28 29 30 31 32 33 34 35 36 37 38 39 40 41 42 43 44 45 46 47 48 49 50
000
ASUS43 KFSD 260710
RWRSD

WEATHER ROUNDUP FOR SOUTH DAKOTA
NATIONAL WEATHER SERVICE SIOUX FALLS SD
200 AM CDT TUE MAY 26 2015

NOTE: "FAIR" INDICATES FEW OR NO CLOUDS BELOW 12,000 FEET WITH NO
SIGNIFICANT WEATHER AND/OR OBSTRUCTIONS TO VISIBILITY.


SDZ001>005-009-010-012>017-260800-
NORTHWEST AND NORTH CENTRAL SOUTH DAKOTA

CITY           SKY/WX    TMP DP  RH WIND       PRES   REMARKS
BUFFALO          N/A     50  48  93 SE5       29.89S
FAITH            N/A     54  50  86 NW5       29.97R
MOBRIDGE       MOCLDY    53  53 100 CALM      29.90S
$$

SDZ012>016-024>037-041>051-057-063-072>074-260800-
SOUTHWEST AND SOUTH CENTRAL SOUTH DAKOTA

CITY           SKY/WX    TMP DP  RH WIND       PRES   REMARKS
RAPID CTY ARPT CLOUDY    52  51  97 N5        29.96S
PIERRE         MOCLDY    53  51  93 N9        29.90S
CUSTER         CLOUDY    47  45  93 NE5       30.00S
ELLSWORTH AFB  CLOUDY    52  52 100 N1        29.95F
PHILIP         CLOUDY    54  53  97 W3        29.93S
PINE RIDGE     CLOUDY    54  51  90 NE5       29.94F
SPEARFISH      FAIR      41  41 100 S6        29.97F
WINNER         PTSUNNY   53  48  83 N6        29.88S
$$

SDZ004>011-016>023-039-040-260800-
NORTHEAST SOUTH DAKOTA

CITY           SKY/WX    TMP DP  RH WIND       PRES   REMARKS
ABERDEEN       MOCLDY    54  50  86 N3        29.90S
WATERTOWN      CLOUDY    52  49  89 N13       29.84F
BROOKINGS      PTCLDY    52  48  87 N8        29.82F
SISSETON         N/A     50  49  96 NW9       29.86F
$$

SDZ017-020-022-023-036>040-048>070-260800-
SOUTHEAST SOUTH DAKOTA

CITY           SKY/WX    TMP DP  RH WIND       PRES   REMARKS
SIOUX FALLS    CLOUDY    57  54  89 NE7       29.80F
HURON          CLOUDY    54  50  86 N8        29.85F
CHAMBERLAIN    CLOUDY    55  49  81 N7        29.88S
MITCHELL       MOCLDY    55  52  89 N10       29.84F
YANKTON        CLOUDY    61  57  88 N7        29.77F
$$

ABBREVIATIONS USED IN REMARKS
   TC - TEMPERATURE IN CELSIUS
  WCI - WIND CHILL INDEX
   HX - HEAT INDEX
  VSB - VISIBILITY



USA.gov is the U.S. government's official web portal to all federal, state and local government web resources and services.